This demonstration page uses our WeatherBlox Daily Observations layout. Learn more.

Hourly Observations for October 16, 2020

Temp ( °F °C ) Dew Point ( °F °C ) Humidity (%) Winds ( mph kmh ) Pressure ( in mb ) Visibility ( mi km ) Precip ( " mm )
12:53 am 00:53 Mostly Cloudy 34 1.1 26 -3.3 73 73 NNW 5 7 30.39 1029 10 16.0934 0 0
1:53 am 01:53 Mostly Clear 32 0 26 -3.3 79 79 W 5 7 30.39 1029 10 16.0934 0 0
2:53 am 02:53 Cloudy 31 -0.6 26 -3.3 82 82 NNW 7 11 30.38 1029 10 16.0934 0 0
3:53 am 03:53 Mostly Cloudy 31 -0.6 26 -3.3 82 82 NW 5 7 30.38 1029 10 16.0934 0 0
4:53 am 04:53 Clear 29 -1.7 24 -4.4 82 82 Calm 30.36 1028 10 16.0934 0 0
5:53 am 05:53 Clear 24 -4.4 21 -6.1 88 88 ENE 5 7 30.36 1028 10 16.0934 0 0
6:53 am 06:53 Clear 22 -5.6 19 -7.2 89 89 Calm 30.37 1029 10 16.0934 0 0
7:53 am 07:53 Sunny 26 -3.3 22 -5.6 84 84 Calm 30.33 1027 10 16.0934 0 0
8:53 am 08:53 Sunny 34 1.1 27 -2.8 76 76 SE 5 7 30.3 1026 10 16.0934 0 0
9:53 am 09:53 Sunny 40 4.4 28 -2.2 63 63 VRB 3 6 30.24 1024 10 16.0934 0 0
10:53 am 10:53 Sunny 49 9.4 26 -3.3 41 41 SSE 6 9 30.14 1021 10 16.0934 0 0
11:34 am 11:34 Sunny 56 13.3 25 -3.9 30 30 SW 10 17 30.01 1016 10 16.0934 0 0
11:53 am 11:53 Sunny 58 14.4 23 -5 26 26 SW 13 20 30.07 1018 10 16.0934 0 0
12:53 pm 12:53 Sunny 62 16.7 22 -5.6 21 21 SSW 14 22 29.98 1015 10 16.0934 0 0
1:53 pm 13:53 Sunny 64 17.8 25 -3.9 23 23 SSW 12 19 29.93 1013 10 16.0934 0 0
2:43 pm 14:43 Partly Cloudy 70 21.1 19 -7.2 14 14 W 16 26 29.69 1005 10 16.0934 0 0
2:53 pm 14:53 Mostly Sunny 70 21.1 21 -6.1 16 16 W 18 30 29.85 1011 10 16.0934 0 0
3:53 pm 15:53 Sunny 71 21.7 23 -5 16 16 W 14 22 29.81 1010 10 16.0934 0 0
4:53 pm 16:53 Sunny 72 22.2 24 -4.4 17 17 W 12 19 29.77 1008 10 16.0934 0 0
5:53 pm 17:53 Sunny 66 18.9 25 -3.9 21 21 NW 6 9 29.78 1009 10 16.0934 0 0
6:53 pm 18:53 Clear 58 14.4 24 -4.4 27 27 WNW 5 7 29.79 1009 10 16.0934 0 0
7:53 pm 19:53 Clear 58 14.4 26 -3.3 29 29 WNW 7 11 29.77 1008 10 16.0934 0 0
8:53 pm 20:53 Clear 61 16.1 27 -2.8 27 27 W 9 15 29.72 1006 10 16.0934 0 0
9:53 pm 21:53 Clear 58 14.4 27 -2.8 31 31 WNW 9 15 29.7 1006 10 16.0934 0 0
10:53 pm 22:53 Clear 53 11.7 28 -2.2 38 38 WNW 7 11 29.69 1005 10 16.0934 0 0
11:53 pm 23:53 Clear 52 11.1 29 -1.7 41 41 NW 5 7 29.67 1005 10 16.0934 0 0

Powered by AerisWeather